Powrót do katalogu

STARLINK-32689

AktywnyŁącznośćVLEO
NORAD 62440·PAYLOAD·🇺🇸 United States

Wystrzelony Dec 29, 2024 z Vandenberg Space Force Base

Loading…

Następne Przeloty (najbliższe 24 godziny)

TLE

ŚwieżeSource: CelesTrak SupGP

Epoka: Sep 14, 2026, 21:39 UTC

1 62440C 24251J   26257.90256944 -.00033984  00000+0 -10037-2 0  2579
2 62440  53.1573 173.6368 0001354  89.1064  37.0151 15.34416991    18

Śledź STARLINK-32689 w czasie rzeczywistym z AllMySat

Download on the App Store